Weather History for Tampa, FL

Change the Weather History Date:

Tuesday, October 18, 2011

  Actual Average Record
Temperature  
Mean Temperature 78 °F 76 °F  
Max Temperature 80 °F 84 °F 90 °F (1985)
Min Temperature 75 °F 68 °F 47 °F (1977)
Degree Days  
Heating Degree Days 0 0  
Month to date heating degree days 0 0  
Since 1 July heating degree days 0 0  
Cooling Degree Days 13 11  
Month to date cooling degree days 210 230  
Year to date cooling degree days 3618 3246  
Growing Degree Days 28 (Base 50)    
Moisture  
Dew Point 72 °F    
Average Humidity 81    
Maximum Humidity 88    
Minimum Humidity 74    
Precipitation  
Precipitation 0.08 in 0.07 in 2.49 in (1968)
Month to date precipitation 2.08 1.55  
Year to date precipitation 50.70 41.57  
Sea Level Pressure  
Sea Level Pressure 29.69 in    
Wind  
Wind Speed 8 mph (SE)    
Max Wind Speed 16 mph    
Max Gust Speed 24 mph    
Visibility 10 miles    
Events Rain    
T = Trace of Precipitation, MM = Missing Value Source: NWS Daily Summary

Daily Weather History Graph

Daily Weather History Graph

Search for Another Location

Airport:

Trip Planner

Search our weather history database for the weather conditions in past years. The results will help you decide how hot, cold, wet, or windy it might be!

Date:

Astronomy

Oct. 18, 2011 Rise Set
Actual Time 7:32 AM EDT 6:58 PM EDT
Civil Twilight 7:08 AM EDT 7:21 PM EDT
Nautical Twilight 6:41 AM EDT 7:49 PM EDT
Astronomical Twilight 6:13 AM EDT 8:16 PM EDT
Moon 11:54 PM EDT (10/18) 1:04 PM EDT (10/18)
Length of Visible Light 12h 13m
Length of Day
11h 26m
Waning Gibbous, 65% of the Moon is Illuminated
Oct 18
Waning Gibbous
Oct 19
Last Quarter
Oct 26
New
Nov 2
First Quarter
Nov 10
Full

Hourly Weather History & Observations

Time (EDT) Temp. Heat Index Dew Point Humidity Pressure Visibility Wind Dir Wind Speed Gust Speed Precip Events Conditions
12:53 AM 75.9 °F - 70.0 °F 82% 29.87 in 10.0 mi Calm Calm - N/A   Overcast
1:53 AM 75.2 °F - 71.6 °F 89% 29.85 in 10.0 mi Calm Calm - N/A   Mostly Cloudy
2:53 AM 75.9 °F - 70.0 °F 82% 29.82 in 10.0 mi ESE 5.8 mph - N/A   Overcast
3:53 AM 75.0 °F - 70.0 °F 84% 29.81 in 10.0 mi ESE 3.5 mph - N/A   Overcast
4:53 AM 75.0 °F - 70.0 °F 84% 29.80 in 10.0 mi SE 6.9 mph - N/A   Overcast
5:53 AM 75.0 °F - 70.0 °F 84% 29.80 in 10.0 mi Variable 5.8 mph - N/A   Mostly Cloudy
6:53 AM 75.2 °F - 69.8 °F 83% 29.79 in 10.0 mi ESE 5.8 mph - N/A   Overcast
7:53 AM 75.0 °F - 70.0 °F 84% 29.79 in 10.0 mi ESE 5.8 mph - N/A   Overcast
8:39 AM 75.2 °F - 69.8 °F 83% 29.80 in 10.0 mi East 5.8 mph - N/A   Overcast
8:53 AM 75.9 °F - 70.0 °F 82% 29.80 in 10.0 mi ESE 5.8 mph - N/A   Overcast
9:15 AM 75.2 °F - 69.8 °F 83% 29.79 in 10.0 mi ESE 9.2 mph - N/A   Overcast
9:31 AM 75.2 °F - 69.8 °F 83% 29.79 in 10.0 mi SE 10.4 mph - N/A   Mostly Cloudy
9:39 AM 75.2 °F - 69.8 °F 83% 29.80 in 10.0 mi SE 9.2 mph 17.3 mph N/A   Mostly Cloudy
9:53 AM 77.0 °F - 71.6 °F 83% 29.80 in 10.0 mi SE 10.4 mph 16.1 mph N/A   Mostly Cloudy
10:53 AM 77.0 °F - 71.1 °F 82% 29.80 in 10.0 mi SSE 6.9 mph - N/A   Overcast
11:53 AM 78.1 °F - 71.1 °F 79% 29.77 in 10.0 mi SE 12.7 mph 19.6 mph N/A   Overcast
12:00 PM 78.8 °F - 71.6 °F 78% 29.75 in 10.0 mi SE 11.5 mph 20.7 mph N/A   Overcast
12:53 PM 79.0 °F - 71.1 °F 77% 29.74 in 10.0 mi SE 9.2 mph 17.3 mph N/A   Overcast
1:53 PM 80.1 °F 83.6 °F 71.1 °F 74% 29.70 in 10.0 mi SSE 11.5 mph 23.0 mph N/A   Overcast
2:44 PM 78.8 °F - 71.6 °F 78% 29.68 in 10.0 mi SSE 13.8 mph 24.2 mph N/A   Overcast
2:53 PM 80.1 °F 83.6 °F 71.1 °F 74% 29.67 in 10.0 mi SE 11.5 mph 19.6 mph N/A   Overcast
3:01 PM 80.6 °F 84.6 °F 71.6 °F 74% 29.66 in 10.0 mi SE 11.5 mph 21.9 mph N/A   Overcast
3:31 PM 78.8 °F - 69.8 °F 74% 29.66 in 10.0 mi SE 10.4 mph 18.4 mph N/A   Overcast
3:53 PM 78.1 °F - 71.1 °F 79% 29.65 in 10.0 mi SE 10.4 mph 18.4 mph N/A   Overcast
4:43 PM 77.0 °F - 71.6 °F 83% 29.64 in 8.0 mi SSE 11.5 mph 20.7 mph 0.00 in Rain Light Rain
4:53 PM 75.9 °F - 71.1 °F 85% 29.63 in 6.0 mi SE 11.5 mph 19.6 mph 0.01 in Rain Light Rain
5:53 PM 75.9 °F - 72.0 °F 87% 29.61 in 10.0 mi ESE 10.4 mph 16.1 mph 0.03 in   Overcast
6:29 PM 75.2 °F - 71.6 °F 89% 29.60 in 10.0 mi Variable 5.8 mph - N/A   Overcast
6:53 PM 75.9 °F - 72.0 °F 87% 29.61 in 10.0 mi SE 5.8 mph 16.1 mph N/A   Overcast
7:47 PM 77.0 °F - 73.4 °F 89% 29.61 in 10.0 mi SE 10.4 mph 16.1 mph N/A   Overcast
7:53 PM 77.0 °F - 73.0 °F 88% 29.62 in 10.0 mi SE 12.7 mph 19.6 mph N/A   Overcast
8:09 PM 75.2 °F - 71.6 °F 89% 29.61 in 10.0 mi SE 10.4 mph 19.6 mph N/A   Overcast
8:50 PM 75.2 °F - 71.6 °F 89% 29.58 in 10.0 mi SE 9.2 mph 18.4 mph 0.00 in   Overcast
8:53 PM 75.9 °F - 72.0 °F 87% 29.57 in 10.0 mi SE 9.2 mph 17.3 mph 0.00 in   Mostly Cloudy
9:43 PM 77.0 °F - 73.4 °F 89% 29.57 in 10.0 mi SSE 9.2 mph - N/A   Mostly Cloudy
9:50 PM 77.0 °F - 73.4 °F 89% 29.57 in 10.0 mi SSE 8.1 mph - N/A   Mostly Cloudy
9:51 PM 77.0 °F - 73.4 °F 89% 29.57 in 10.0 mi SSE 6.9 mph - N/A   Mostly Cloudy
9:53 PM 77.0 °F - 73.0 °F 88% 29.57 in 10.0 mi SE 9.2 mph - N/A   Mostly Cloudy
9:59 PM 77.0 °F - 73.4 °F 89% 29.58 in 7.0 mi SE 8.1 mph - 0.00 in Rain Light Rain
10:18 PM 75.2 °F - 73.4 °F 94% 29.58 in 7.0 mi SSE 8.1 mph - 0.00 in Rain Light Rain
10:53 PM 77.0 °F - 75.0 °F 94% 29.59 in 9.0 mi South 9.2 mph - 0.02 in Rain Light Rain
11:53 PM 79.0 °F - 77.0 °F 94% 29.57 in 10.0 mi South 9.2 mph - 0.01 in   Overcast